User: anonymous   Login
Location: ???? ??????? ????
(31.2176°N, 31.6797°E)
Time: 01:36:19
(UTC+00:00)
Language:

In-Cosmos 22 Rocket - Orbit

View from above orbital plane
View from above orbital plane
View from above satellite
View from above satellite

Ground track
Ground track

The orbit data is extracted from the following two-line orbital elements,

1 12646U 81075B   21018.41280853  .00000014  00000-0  88460-6 0  9990
2 12646  81.2250  60.4367 0067264 204.8516 165.3870 14.15906931 37072
Epoch (UTC): 18 January 2021 09:54:26
Eccentricity: 0.0067264
inclination: 81.2250°
perigee height: 790 km
apogee height: 888 km
right ascension of ascending node: 60.4367°
argument of perigee: 204.8516°
revolutions per day: 14.15906931
mean anomaly at epoch: 165.3870°
orbit number at epoch: 3707

The dashed part of the orbit path shows where the satellite is in the earth's shadow,  

DLR